Regional Weather Roundup
Issued by NWS

Home | Current Version | Previous Version | Graphics & Text | Print | Product List | Glossary On
Versions: 1 2 3 4 5 6 7 8 9 10 11 12 13 14 15 16 17 18 19 20 21 22 23 24 25 26 27 28 29 30 31 32 33 34 35 36 37 38 39 40 41 42 43 44 45 46 47 48 49 50
000
ASUS43 KOAX 180202
RWRNE

WEATHER ROUNDUP FOR NEBRASKA
NATIONAL WEATHER SERVICE OMAHA NE
800 PM CST SUN DEC 17 2017

NOTES: SATELLITE DATA IS BEING USED TO AUGMENT CLOUD COVER ABOVE
       12000 FEET.
       "FAIR" INDICATES FEW OR NO CLOUDS BELOW 12,000 FEET WITH NO
       SIGNIFICANT WEATHER AND/OR OBSTRUCTIONS TO VISIBILITY.


NEZ001>004-019>022-054>056-180300-
NEBRASKA PANHANDLE

CITY           SKY/WX    TMP DP  RH WIND       PRES   REMARKS
SCOTTSBLUFF    CLEAR     31  17  56 W7        29.90R WCI  24
ALLIANCE       CLEAR     19  15  84 W8        29.88R WCI   9
CHADRON        CLEAR     26  19  74 W6        29.89R WCI  19
KIMBALL        CLEAR     26  24  89 W10       29.92S WCI  17
SIDNEY         CLEAR     23  20  88 W9        29.93R WCI  13
$$

NEZ057>060-069>072-079>082-180300-
SOUTHWEST NEBRASKA

CITY           SKY/WX    TMP DP  RH WIND       PRES   REMARKS
NORTH PLATTE   CLEAR     25  24  96 S6        29.95R WCI  18
IMPERIAL       CLEAR     27  23  85 SW9       29.96R WCI  18
LEXINGTON      CLEAR     32  28  86 SE5       29.98R WCI  27
MCCOOK         CLOUDY    28  25  88 SW8       29.99R WCI  20
OGALLALA       CLEAR     29  24  83 W6        29.94R WCI  23
$$

NEZ005>010-023>029-035>040-094-180300-
NORTH CENTRAL NEBRASKA

CITY           SKY/WX    TMP DP  RH WIND       PRES   REMARKS
VALENTINE      CLEAR     33  28  81 S8        29.87F WCI  26
AINSWORTH      CLEAR     28  27  96 S8        29.90F WCI  20
BROKEN BOW     CLOUDY    33  30  88 SE6       29.94F WCI  28
O`NEILL        CLOUDY    36  29  78 S7        29.95F WCI  30
ORD            CLOUDY    32  27  81 SW3       29.95F
$$

NEZ041-046>049-061>064-073>077-083>087-180300-
SOUTH CENTRAL NEBRASKA

CITY           SKY/WX    TMP DP  RH WIND       PRES   REMARKS
GRAND ISLAND   PTCLDY    30  26  85 NW5       30.00R WCI  25
AURORA         PTCLDY    30  27  88 CALM      30.00R
HASTINGS       CLOUDY    31  25  78 W3        30.00S
HEBRON         CLOUDY    31  28  86 CALM      30.01S
HOLDREGE       CLOUDY    28  26  91 S3        29.99R
KEARNEY        CLOUDY    32  28  85 CALM      30.00R
YORK           CLOUDY    32  28  86 N3        30.00S
$$

NEZ011>018-030>034-042>045-180300-
NORTHEAST NEBRASKA

CITY           SKY/WX    TMP DP  RH WIND       PRES   REMARKS
NORFOLK        CLOUDY    27  23  85 W5        29.98R WCI  22
ALBION         CLOUDY    33  28  82 CALM      29.98S
BLAIR          PTCLDY    30  27  90 W3        30.00R FOG
COLUMBUS       CLOUDY    28  24  85 CALM      30.00R
FREMONT        PTCLDY    28  26  91 CALM      30.00S FOG
TEKAMAH        CLOUDY    26  20  77 SW5       30.01R WCI  20
WAYNE          CLOUDY    24  23  96 S3        29.99R
$$

NEZ050>053-065>068-078-088>093-180300-
SOUTHEAST NEBRASKA

CITY           SKY/WX    TMP DP  RH WIND       PRES   REMARKS
LINCOLN        PTCLDY    32  27  81 CALM      30.02R
OMAHA EPPLEY   PTCLDY    29  23  78 CALM      30.02R
BEATRICE       CLEAR     31  31  98 CALM      30.02R FOG
FALLS CITY     CLOUDY    38  36  92 N3        30.02R FOG
NEBRASKA CITY  CLEAR     31  31 100 SW5       30.02R FOG     WCI  26
PLATTSMOUTH    CLOUDY    30  28  94 W5        30.01R WCI  25
$$

NEZ044-045-051>053-067-180300-
OMAHA AREA

CITY           SKY/WX    TMP DP  RH WIND       PRES   REMARKS
OMAHA EPPLEY   PTCLDY    29  23  78 CALM      30.02R
BLAIR          PTCLDY    30  27  90 W3        30.00R FOG
FREMONT        PTCLDY    28  26  91 CALM      30.00S FOG
OFFUTT AFB     PTCLDY    27  24  91 CALM      30.01R
PLATTSMOUTH    CLOUDY    30  28  94 W5        30.01R WCI  25
$$




USA.gov is the U.S. government's official web portal to all federal, state and local government web resources and services.